Location: Greenwich
(51.4790°N, 0.0090°E)
Time: 17:05:23
(UTC+01:00)

Tiros 1 - Visible Passes

Search period start: 23 June 2025 00:00
Search period end: 03 July 2025 00:00
Orbit: 620 x 651 km, 48.4° (Epoch: 23 June)

Date Brightness Start Highest point End Pass type
(mag) Time Alt. Az. Time Alt. Az. Time Alt. Az.
26 Jun 9.2 03:29:57 10° S 03:32:33 15° SE 03:35:08 10° ESE visible
27 Jun 8.6 03:50:33 10° SSW 03:54:20 24° SSE 03:58:05 10° E visible
28 Jun 9.2 02:33:33 11° SSE 02:35:14 13° SE 02:37:13 10° ESE visible
29 Jun 8.6 02:54:27 14° S 02:56:58 21° SE 03:00:30 10° E visible
30 Jun 9.3 01:37:54 10° SE 01:37:54 10° SE 01:38:49 10° SE visible
30 Jun 8.0 03:15:18 13° SSW 03:18:50 33° SSE 03:23:01 10° E visible
01 Jul 8.7 01:58:42 18° SSE 01:59:36 19° SE 02:02:53 10° E visible
01 Jul 7.6 03:36:19 10° SW 03:40:49 45° SSE 03:45:18 10° E visible
02 Jul 8.1 02:19:27 21° SSW 02:21:26 29° SSE 02:25:30 10° E visible
02 Jul 7.3 03:58:16 10° WSW 04:02:54 56° S 04:07:29 10° E visible
